Regional Weather Roundup
Issued by NWS

Home | Current Version | Previous Version | Text Only | Print | Product List | Glossary On
Versions: 1 2 3 4 5 6 7 8 9 10 11 12 13 14 15 16 17 18 19 20 21 22 23 24 25 26 27 28 29 30 31 32 33 34 35 36 37 38 39 40 41 42 43 44 45 46 47 48 49 50
000
ASUS44 KBMX 301410
RWRAL

ALABAMA REGIONAL WEATHER ROUNDUP
NATIONAL WEATHER SERVICE BIRMINGHAM AL
800 AM CST FRI JAN 30 2015

NOTE: "FAIR" INDICATES FEW OR NO CLOUDS BELOW 12,000 FEET
WITH NO SIGNIFICANT WEATHER AND/OR OBSTRUCTIONS TO VISIBILITY.

THE REMARK "TC" DENOTES TEMPERATURE IN DEGREES CELSIUS.

ALZ001>011-014-016>018-020-301500-
NORTH ALABAMA

CITY           SKY/WX    TMP DP  RH WIND       PRES   REMARKS
MUSCLE SHOALS  CLOUDY    39  25  57 N8        30.44R WCI  33
HUNTSVILLE     PTSUNNY   39  26  59 N15G22    30.42R WCI  31
DECATUR        CLOUDY    38  26  62 N17       30.44R WCI  28
HALEYVILLE       N/A     37  28  70 N9G16     30.42R WCI  30
GADSDEN        CLOUDY   N/A N/A N/A N10G17    30.38R
$$

ALZ012-013-022-023-030>036-040>044-301500-
WEST CENTRAL ALABAMA

CITY           SKY/WX    TMP DP  RH WIND       PRES   REMARKS
TUSCALOOSA     SUNNY     39  31  72 NW3       30.41R
$$

ALZ015-024>027-033>036-040>044-301500-
CENTRAL ALABAMA

CITY           SKY/WX    TMP DP  RH WIND       PRES   REMARKS
BIRMINGHAM     MOSUNNY   41  27  57 N14G21    30.40R
MONTGOMERY     SUNNY     43  30  60 NW12      30.37R
SHELBY CO ARPT SUNNY     42  29  59 N9        30.37R
MAXWELL AFB    SUNNY     43  32  65 N8        30.36R
GREENVILLE     FAIR      43  31  62 N12G18    30.34R
$$

ALZ019-021-028-029-037-038-045>048-301500-
EAST CENTRAL ALABAMA

CITY           SKY/WX    TMP DP  RH WIND       PRES   REMARKS
ANNISTON       CLOUDY    41  26  55 N10G18    30.37R
ALEXANDER CITY SUNNY     42  26  52 N12G18    30.34R
AUBURN         SUNNY     39  27  60 N15       30.34R WCI  31
$$

ALZ051>064-301500-
SOUTHWEST ALABAMA

CITY           SKY/WX    TMP DP  RH WIND       PRES   REMARKS
MOBILE         PTSUNNY   43  32  65 N15G30    30.38R
BROOKLEY FIELD MOSUNNY   47  35  63 N15G23    30.38R
EVERGREEN      SUNNY     43  33  68 N10       30.36R
$$

ALZ049-050-065>069-301500-
SOUTHEAST ALABAMA

CITY           SKY/WX    TMP DP  RH WIND       PRES   REMARKS
DOTHAN         MOSUNNY   45  36  70 N13       30.32R
OZARK          MOSUNNY   44  34  67 N16G22    30.30R
TROY           MOSUNNY   44  31  60 N13       30.34R
EUFAULA        FAIR      45  32  60 N8        30.31R
$$


USA.gov is the U.S. government's official web portal to all federal, state and local government web resources and services.